Time,TemperatureF,DewpointF,PressureIn,WindDirection,WindDirectionDegrees,WindSpeedMPH,WindSpeedGustMPH,Humidity,HourlyPrecipIn,Conditions,Clouds,dailyrainin,SoftwareType,DateUTC
2013-06-27 00:02:00,64.0,52.0,28.02,WNW,285,5.0,11.0,64,0.00,,,0.08,,2013-06-27 07:02:00,
2013-06-27 00:12:00,64.0,51.0,28.03,NNW,330,5.0,10.0,63,0.00,,,0.08,,2013-06-27 07:12:00,
2013-06-27 00:22:00,64.0,51.0,28.03,NNW,330,5.0,10.0,63,0.00,,,0.08,,2013-06-27 07:22:00,
2013-06-27 00:33:00,64.0,52.0,28.02,WNW,295,8.0,13.0,64,0.00,,,0.08,,2013-06-27 07:33:00,
2013-06-27 00:42:00,64.0,52.0,28.02,NW,312,6.0,14.0,64,0.00,,,0.08,,2013-06-27 07:42:00,
2013-06-27 00:52:00,64.0,52.0,28.02,NW,312,6.0,14.0,64,0.00,,,0.08,,2013-06-27 07:52:00,
2013-06-27 01:01:00,66.0,51.0,28.03,West,274,5.0,13.0,59,0.00,,,0.08,,2013-06-27 08:01:00,
2013-06-27 01:11:00,64.0,51.0,28.04,WSW,258,3.0,7.0,63,0.00,,,0.08,,2013-06-27 08:11:00,
2013-06-27 01:22:00,64.0,51.0,28.04,WSW,258,3.0,7.0,63,0.00,,,0.08,,2013-06-27 08:22:00,
2013-06-27 01:34:00,63.0,51.0,28.03,WSW,251,3.0,10.0,66,0.00,,,0.08,,2013-06-27 08:34:00,
2013-06-27 01:52:00,63.0,52.0,28.03,WNW,299,5.0,12.0,67,0.00,,,0.08,,2013-06-27 08:52:00,
2013-06-27 02:02:00,63.0,52.0,28.03,West,278,4.0,11.0,67,0.00,,,0.08,,2013-06-27 09:02:00,
2013-06-27 02:11:00,63.0,52.0,28.03,West,281,4.0,10.0,67,0.00,,,0.08,,2013-06-27 09:11:00,
2013-06-27 02:22:00,63.0,52.0,28.03,West,281,4.0,10.0,67,0.00,,,0.08,,2013-06-27 09:22:00,
2013-06-27 02:33:00,62.0,52.0,28.03,WNW,287,7.0,10.0,69,0.00,,,0.08,,2013-06-27 09:33:00,
2013-06-27 02:43:00,62.0,52.0,28.03,WNW,292,8.0,15.0,70,0.00,,,0.08,,2013-06-27 09:43:00,
2013-06-27 02:53:00,62.0,52.0,28.03,WNW,292,8.0,15.0,70,0.00,,,0.08,,2013-06-27 09:53:00,
2013-06-27 03:01:00,62.0,52.0,28.03,West,269,7.0,13.0,71,0.00,,,0.08,,2013-06-27 10:01:00,
2013-06-27 03:11:00,62.0,52.0,28.03,WNW,288,5.0,10.0,70,0.00,,,0.08,,2013-06-27 10:11:00,
2013-06-27 03:22:00,62.0,52.0,28.03,WNW,288,5.0,10.0,70,0.00,,,0.08,,2013-06-27 10:22:00,
2013-06-27 03:32:00,62.0,52.0,28.03,WNW,302,3.0,9.0,69,0.00,,,0.08,,2013-06-27 10:32:00,
2013-06-27 03:43:00,62.0,52.0,28.04,WNW,303,0.0,4.0,70,0.00,,,0.08,,2013-06-27 10:43:00,
2013-06-27 03:54:00,62.0,52.0,28.04,WNW,303,0.0,4.0,70,0.00,,,0.08,,2013-06-27 10:54:00,
2013-06-27 04:01:00,61.0,52.0,28.03,WNW,302,3.0,6.0,71,0.00,,,0.08,,2013-06-27 11:01:00,
2013-06-27 04:11:00,62.0,52.0,28.04,WNW,297,6.0,10.0,69,0.00,,,0.08,,2013-06-27 11:11:00,
2013-06-27 04:21:00,62.0,52.0,28.04,WNW,297,6.0,10.0,69,0.00,,,0.08,,2013-06-27 11:21:00,
2013-06-27 04:33:00,62.0,52.0,28.04,SW,233,0.0,5.0,71,0.00,,,0.08,,2013-06-27 11:33:00,
2013-06-27 04:43:00,62.0,52.0,28.04,NW,310,6.0,10.0,70,0.00,,,0.08,,2013-06-27 11:43:00,
2013-06-27 04:52:00,62.0,52.0,28.04,NW,310,6.0,10.0,70,0.00,,,0.08,,2013-06-27 11:52:00,
2013-06-27 05:01:00,61.0,53.0,28.04,WNW,297,8.0,12.0,74,0.00,,,0.08,,2013-06-27 12:01:00,
2013-06-27 05:11:00,60.0,53.0,28.04,NW,316,3.0,10.0,78,0.00,,,0.08,,2013-06-27 12:11:00,
2013-06-27 05:22:00,60.0,53.0,28.04,NW,316,3.0,10.0,78,0.00,,,0.08,,2013-06-27 12:22:00,
2013-06-27 05:34:00,59.0,54.0,28.05,WSW,257,0.0,8.0,82,0.01,,,0.09,,2013-06-27 12:34:00,
2013-06-27 05:42:00,58.0,54.0,28.06,WSW,256,0.0,0.0,85,0.02,,,0.10,,2013-06-27 12:42:00,
2013-06-27 06:01:00,58.0,54.0,28.06,NW,309,3.0,8.0,86,0.02,,,0.10,,2013-06-27 13:01:00,
2013-06-27 06:11:00,58.0,54.0,28.07,WNW,282,5.0,8.0,86,0.02,,,0.10,,2013-06-27 13:11:00,
2013-06-27 06:33:00,58.0,54.0,28.07,NW,307,5.0,12.0,86,0.02,,,0.11,,2013-06-27 13:33:00,
2013-06-27 06:43:00,58.0,53.0,28.07,NW,321,8.0,13.0,83,0.01,,,0.11,,2013-06-27 13:43:00,
2013-06-27 06:52:00,58.0,53.0,28.07,NW,321,8.0,13.0,83,0.01,,,0.11,,2013-06-27 13:52:00,
2013-06-27 07:01:00,58.0,53.0,28.07,WNW,285,8.0,15.0,84,0.01,,,0.11,,2013-06-27 14:01:00,
2013-06-27 07:22:00,58.0,53.0,28.08,West,274,7.0,13.0,83,0.01,,,0.11,,2013-06-27 14:22:00,
2013-06-27 07:33:00,58.0,54.0,28.09,WNW,297,5.0,8.0,85,0.00,,,0.11,,2013-06-27 14:33:00,
2013-06-27 07:43:00,58.0,54.0,28.09,WSW,255,3.0,8.0,87,0.00,,,0.11,,2013-06-27 14:43:00,
2013-06-27 07:52:00,58.0,54.0,28.09,WSW,255,3.0,8.0,87,0.00,,,0.11,,2013-06-27 14:52:00,
2013-06-27 08:11:00,58.0,54.0,28.10,WNW,294,4.0,9.0,85,0.00,,,0.11,,2013-06-27 15:11:00,
2013-06-27 08:22:00,59.0,54.0,28.10,NW,326,5.0,8.0,85,0.01,,,0.12,,2013-06-27 15:22:00,
2013-06-27 08:33:00,58.0,54.0,28.11,NW,319,3.0,8.0,88,0.01,,,0.12,,2013-06-27 15:33:00,
2013-06-27 08:42:00,59.0,55.0,28.12,NW,315,2.0,5.0,87,0.02,,,0.13,,2013-06-27 15:42:00,
2013-06-27 08:52:00,59.0,55.0,28.12,NW,315,2.0,5.0,87,0.02,,,0.13,,2013-06-27 15:52:00,
2013-06-27 09:02:00,59.0,54.0,28.12,NW,316,5.0,9.0,85,0.03,,,0.14,,2013-06-27 16:02:00,
2013-06-27 09:11:00,58.0,54.0,28.13,NW,310,6.0,11.0,87,0.03,,,0.15,,2013-06-27 16:11:00,
2013-06-27 09:33:00,58.0,55.0,28.13,West,281,3.0,10.0,89,0.04,,,0.16,,2013-06-27 16:33:00,
2013-06-27 09:43:00,60.0,56.0,28.13,NW,307,2.0,6.0,86,0.03,,,0.16,,2013-06-27 16:43:00,
2013-06-27 09:53:00,60.0,56.0,28.13,NW,307,2.0,6.0,86,0.03,,,0.16,,2013-06-27 16:53:00,
2013-06-27 10:01:00,60.0,55.0,28.13,WNW,297,3.0,6.0,85,0.01,,,0.16,,2013-06-27 17:01:00,
2013-06-27 10:11:00,60.0,55.0,28.13,WNW,297,3.0,6.0,85,0.01,,,0.16,,2013-06-27 17:11:00,
2013-06-27 10:22:00,60.0,56.0,28.13,NW,321,0.0,3.0,86,0.01,,,0.16,,2013-06-27 17:22:00,
2013-06-27 10:33:00,60.0,55.0,28.14,WNW,303,1.0,3.0,83,0.00,,,0.16,,2013-06-27 17:33:00,
2013-06-27 10:43:00,60.0,56.0,28.14,NW,311,3.0,7.0,86,0.00,,,0.16,,2013-06-27 17:43:00,
2013-06-27 10:53:00,60.0,56.0,28.14,NW,311,3.0,7.0,86,0.00,,,0.16,,2013-06-27 17:53:00,
2013-06-27 11:01:00,61.0,56.0,28.14,West,281,4.0,8.0,85,0.00,,,0.16,,2013-06-27 18:01:00,
2013-06-27 12:33:00,68.0,58.0,28.13,NE,40,0.0,3.0,70,0.00,,,0.16,,2013-06-27 19:33:00,
2013-06-27 12:42:00,69.0,60.0,28.17,NE,53,0.0,2.0,73,0.00,,,0.16,,2013-06-27 19:42:00,
2013-06-27 12:53:00,70.0,60.0,28.13,ESE,109,0.0,2.0,71,0.00,,,0.16,,2013-06-27 19:53:00,
2013-06-27 13:01:00,72.0,60.0,28.13,NW,321,2.0,4.0,65,0.00,,,0.16,,2013-06-27 20:01:00,
2013-06-27 13:11:00,72.0,59.0,28.16,NW,316,2.0,4.0,64,0.00,,,0.16,,2013-06-27 20:11:00,
2013-06-27 13:22:00,71.0,57.0,28.13,ENE,60,1.0,4.0,62,0.00,,,0.16,,2013-06-27 20:22:00,
2013-06-27 13:34:00,74.0,59.0,28.12,NNW,329,0.0,3.0,60,0.00,,,0.16,,2013-06-27 20:34:00,
2013-06-27 13:44:00,75.0,61.0,28.16,East,92,1.0,2.0,61,0.00,,,0.16,,2013-06-27 20:44:00,
2013-06-27 13:53:00,75.0,59.0,28.12,NNE,18,0.0,2.0,58,0.00,,,0.16,,2013-06-27 20:53:00,
2013-06-27 14:01:00,75.0,59.0,28.12,North,5,1.0,3.0,57,0.00,,,0.16,,2013-06-27 21:01:00,
2013-06-27 14:22:00,76.0,61.0,28.11,ENE,76,0.0,3.0,59,0.00,,,0.16,,2013-06-27 21:22:00,
2013-06-27 14:34:00,75.0,58.0,28.11,WNW,284,0.0,3.0,56,0.00,,,0.16,,2013-06-27 21:34:00,
2013-06-27 14:44:00,78.0,61.0,28.15,ESE,104,0.0,1.0,56,0.00,,,0.16,,2013-06-27 21:44:00,
2013-06-27 14:52:00,78.0,61.0,28.11,NE,41,0.0,2.0,56,0.00,,,0.16,,2013-06-27 21:52:00,
2013-06-27 15:02:00,78.0,59.0,28.11,NE,39,0.0,2.0,53,0.00,,,0.16,,2013-06-27 22:02:00,
2013-06-27 15:22:00,76.0,58.0,28.12,WNW,302,2.0,4.0,53,0.00,,,0.08,,2013-06-27 22:22:00,
2013-06-27 15:33:00,76.0,58.0,28.12,WNW,302,2.0,4.0,53,0.00,,,0.08,,2013-06-27 22:33:00,
2013-06-27 15:44:00,76.0,58.0,28.15,WNW,287,1.0,4.0,54,0.00,,,0.08,,2013-06-27 22:44:00,
2013-06-27 16:02:00,78.0,60.0,28.11,North,11,2.0,5.0,54,0.00,,,0.08,,2013-06-27 23:02:00,
2013-06-27 16:33:00,78.0,60.0,28.11,WNW,302,3.0,8.0,54,0.00,,,0.08,,2013-06-27 23:33:00,
2013-06-27 16:43:00,79.0,59.0,28.15,NNE,31,2.0,8.0,51,0.00,,,0.08,,2013-06-27 23:43:00,
2013-06-27 16:53:00,78.0,57.0,28.11,NNW,335,3.0,7.0,49,0.00,,,0.08,,2013-06-27 23:53:00,
2013-06-27 17:02:00,77.0,58.0,28.10,NW,323,4.0,8.0,52,0.00,,,0.08,,2013-06-28 00:02:00,
2013-06-27 17:12:00,77.0,58.0,28.10,NW,323,4.0,8.0,52,0.00,,,0.08,,2013-06-28 00:12:00,
2013-06-27 17:25:00,76.0,59.0,28.10,NNW,327,4.0,8.0,55,0.00,,,0.08,,2013-06-28 00:25:00,
2013-06-27 17:44:00,76.0,59.0,28.14,North,351,5.0,9.0,56,0.00,,,0.08,,2013-06-28 00:44:00,
2013-06-27 17:53:00,76.0,60.0,28.10,West,278,4.0,11.0,57,0.00,,,0.08,,2013-06-28 00:53:00,
2013-06-27 18:11:00,74.0,58.0,28.10,NW,321,6.0,12.0,58,0.00,,,0.08,,2013-06-28 01:11:00,
2013-06-27 18:22:00,74.0,58.0,28.10,WNW,302,7.0,12.0,58,0.00,,,0.08,,2013-06-28 01:22:00,
2013-06-27 18:33:00,74.0,58.0,28.10,WNW,302,7.0,12.0,58,0.00,,,0.08,,2013-06-28 01:33:00,
2013-06-27 18:56:00,73.0,58.0,28.11,WNW,301,6.0,11.0,60,0.00,,,0.08,,2013-06-28 01:56:00,
2013-06-27 19:12:00,74.0,59.0,28.11,NNW,342,6.0,11.0,60,0.00,,,0.08,,2013-06-28 02:12:00,
2013-06-27 19:23:00,73.0,58.0,28.10,NW,315,6.0,9.0,60,0.00,,,0.08,,2013-06-28 02:23:00,
2013-06-27 19:34:00,74.0,59.0,28.10,NW,311,7.0,12.0,60,0.00,,,0.08,,2013-06-28 02:34:00,
2013-06-27 19:55:00,74.0,59.0,28.10,NW,307,5.0,12.0,59,0.00,,,0.08,,2013-06-28 02:55:00,
2013-06-27 20:02:00,73.0,59.0,28.11,WNW,285,7.0,11.0,62,0.00,,,0.08,,2013-06-28 03:02:00,
2013-06-27 20:11:00,73.0,59.0,28.11,WNW,285,7.0,11.0,62,0.00,,,0.08,,2013-06-28 03:11:00,
2013-06-27 20:23:00,73.0,59.0,28.10,NW,314,5.0,12.0,61,0.00,,,0.08,,2013-06-28 03:23:00,
2013-06-27 20:34:00,72.0,58.0,28.11,NW,319,6.0,12.0,61,0.00,,,0.08,,2013-06-28 03:34:00,
2013-06-27 20:43:00,72.0,58.0,28.11,NW,319,6.0,12.0,61,0.00,,,0.08,,2013-06-28 03:43:00,
2013-06-27 20:56:00,71.0,57.0,28.11,WNW,282,5.0,9.0,62,0.00,,,0.08,,2013-06-28 03:56:00,
2013-06-27 21:01:00,72.0,58.0,28.11,NW,308,7.0,11.0,61,0.00,,,0.08,,2013-06-28 04:01:00,
2013-06-27 21:11:00,72.0,58.0,28.11,NW,308,7.0,11.0,61,0.00,,,0.08,,2013-06-28 04:11:00,
2013-06-27 21:22:00,72.0,58.0,28.12,WNW,293,7.0,11.0,61,0.00,,,0.08,,2013-06-28 04:22:00,
2013-06-27 21:33:00,72.0,58.0,28.12,West,280,7.0,10.0,61,0.00,,,0.08,,2013-06-28 04:33:00,
2013-06-27 21:43:00,72.0,58.0,28.12,West,280,7.0,10.0,61,0.00,,,0.08,,2013-06-28 04:43:00,
2013-06-27 21:53:00,71.0,57.0,28.13,NW,307,5.0,11.0,62,0.00,,,0.08,,2013-06-28 04:53:00,
2013-06-27 22:01:00,71.0,58.0,28.14,WNW,302,6.0,11.0,64,0.00,,,0.08,,2013-06-28 05:01:00,
2013-06-27 22:11:00,71.0,58.0,28.14,WNW,302,6.0,11.0,64,0.00,,,0.08,,2013-06-28 05:11:00,
2013-06-27 22:22:00,70.0,58.0,28.14,West,267,8.0,13.0,66,0.00,,,0.08,,2013-06-28 05:22:00,
2013-06-27 22:33:00,69.0,58.0,28.14,WSW,249,8.0,13.0,67,0.00,,,0.08,,2013-06-28 05:33:00,
2013-06-27 22:43:00,69.0,58.0,28.14,WSW,249,8.0,13.0,67,0.00,,,0.08,,2013-06-28 05:43:00,
2013-06-27 22:53:00,69.0,57.0,28.15,NW,304,4.0,9.0,66,0.00,,,0.08,,2013-06-28 05:53:00,
2013-06-27 23:01:00,68.0,57.0,28.15,WSW,250,3.0,9.0,69,0.00,,,0.08,,2013-06-28 06:01:00,
2013-06-27 23:11:00,68.0,57.0,28.15,WSW,250,3.0,9.0,69,0.00,,,0.08,,2013-06-28 06:11:00,
2013-06-27 23:22:00,68.0,59.0,28.15,West,271,6.0,13.0,72,0.00,,,0.08,,2013-06-28 06:22:00,
2013-06-27 23:33:00,67.0,58.0,28.15,WNW,291,6.0,11.0,72,0.00,,,0.08,,2013-06-28 06:33:00,
2013-06-27 23:42:00,68.0,59.0,28.19,WNW,282,5.0,9.0,72,0.00,,,0.08,,2013-06-28 06:42:00,
2013-06-27 23:52:00,67.0,58.0,28.15,NW,323,5.0,11.0,72,0.00,,,0.08,,2013-06-28 06:52:00,